^^
Meteo Knjazevac Station Historical Data
Daily Summary for April 15, 2021 Units:  Metric    English   Both
Daily Weekly Monthly Yearly Custom
  High: Low: Average:
Temperature: 2.3 °C -1.1 °C -0.2 °C
Dew Point: -1.2 °C -2.9 °C -2.2 °C
Humidity: 91% 74% 87%
Wind Speed: 14.5km/h 0km/h 6km/h
Wind Gust: 25.7km/h - -
Wind- - WSW
Pressure: 1018.5 hPa 1014.4 hPa -
Precipitation: 0 mm    
Historical Graphs
 
 
Tabular Data for April 15, 2021
Time Temperature Dew Point Pressure Wind Wind Speed Wind Gust Humidity Rainfall Rate (Hourly) solar Conditions
00:00 -0.6 °C -2.2 °C 1014.4 hPa Calm   8 km/h 89% 0 mm 0 W/m2
00:10 -0.6 °C -2.1 °C 1014.4 hPa WSW 8 km/h 11.3 km/h 89% 0 mm 0 W/m2
00:20 -0.5 °C -2.1 °C 1014.4 hPa WSW 8 km/h 12.9 km/h 89% 0 mm 0 W/m2
00:30 -0.5 °C -1.9 °C 1014.4 hPa WSW 4.8 km/h 11.3 km/h 90% 0 mm 0 W/m2
00:40 -0.5 °C -2.1 °C 1014.4 hPa WNW 3.2 km/h 17.7 km/h 89% 0 mm 0 W/m2
00:50 -0.5 °C -2.1 °C 1014.4 hPa West 1.6 km/h 12.9 km/h 89% 0 mm 0 W/m2
01:00 -0.4 °C -2.2 °C 1014.4 hPa West 4.8 km/h 16.1 km/h 88% 0 mm 0 W/m2
01:10 -0.4 °C -2 °C 1014.8 hPa SSW 3.2 km/h 9.7 km/h 89% 0 mm 0 W/m2
01:20 -0.4 °C -2.2 °C 1014.8 hPa SW 3.2 km/h 11.3 km/h 88% 0 mm 0 W/m2
01:30 -0.4 °C -2.2 °C 1014.8 hPa West 4.8 km/h 16.1 km/h 88% 0 mm 0 W/m2
01:40 -0.4 °C -2 °C 1015.1 hPa WNW 4.8 km/h 12.9 km/h 89% 0 mm 0 W/m2
01:50 -0.4 °C -2 °C 1015.1 hPa West 3.2 km/h 9.7 km/h 89% 0 mm 0 W/m2
02:00 -0.4 °C -2 °C 1015.1 hPa West 8 km/h 11.3 km/h 89% 0 mm 0 W/m2
02:10 -0.4 °C -2 °C 1015.1 hPa West 8 km/h 16.1 km/h 89% 0 mm 0 W/m2
02:20 -0.4 °C -2 °C 1015.5 hPa West 9.7 km/h 16.1 km/h 89% 0 mm 0 W/m2
02:30 -0.4 °C -2.1 °C 1015.5 hPa West 8 km/h 12.9 km/h 89% 0 mm 0 W/m2
02:40 -0.5 °C -1.9 °C 1015.5 hPa WSW 8 km/h 16.1 km/h 90% 0 mm 0 W/m2
02:50 -0.5 °C -1.9 °C 1015.5 hPa WSW 9.7 km/h 12.9 km/h 90% 0 mm 0 W/m2
03:00 -0.5 °C -1.9 °C 1015.5 hPa WSW 8 km/h 12.9 km/h 90% 0 mm 0 W/m2
03:10 -0.6 °C -2 °C 1015.5 hPa WSW 4.8 km/h 16.1 km/h 90% 0 mm 0 W/m2
03:20 -0.6 °C -2.1 °C 1015.5 hPa WSW 4.8 km/h 12.9 km/h 90% 0 mm 0 W/m2
03:30 -0.5 °C -1.9 °C 1015.5 hPa WSW 8 km/h 12.9 km/h 90% 0 mm 0 W/m2
03:40 -0.6 °C -2.1 °C 1015.5 hPa WSW 9.7 km/h 12.9 km/h 90% 0 mm 0 W/m2
03:50 -0.6 °C -2.1 °C 1015.5 hPa WSW 8 km/h 12.9 km/h 90% 0 mm 0 W/m2
04:00 -0.6 °C -2.1 °C 1015.5 hPa WSW 8 km/h 12.9 km/h 90% 0 mm 0 W/m2
04:10 -0.6 °C -2.2 °C 1015.5 hPa WSW 8 km/h 14.5 km/h 89% 0 mm 0 W/m2
04:20 -0.6 °C -2.2 °C 1015.5 hPa SW 11.3 km/h 20.9 km/h 89% 0 mm 0 W/m2
04:30 -0.5 °C -2.2 °C 1015.5 hPa WSW 12.9 km/h 20.9 km/h 88% 0 mm 0 W/m2
04:40 -0.5 °C -2.2 °C 1015.5 hPa WSW 8 km/h 19.3 km/h 88% 0 mm 0 W/m2
04:50 -0.6 °C -2.3 °C 1015.5 hPa WSW 9.7 km/h 20.9 km/h 88% 0 mm 0 W/m2
05:00 -0.5 °C -2.6 °C 1015.8 hPa WSW 8 km/h 20.9 km/h 86% 0 mm 0 W/m2
05:10 -0.6 °C -2.6 °C 1015.8 hPa WSW 11.3 km/h 19.3 km/h 86% 0 mm 0 W/m2
05:20 -0.6 °C -2.3 °C 1015.8 hPa West 9.7 km/h 19.3 km/h 88% 0 mm 0 W/m2
05:30 -0.6 °C -2.3 °C 1015.8 hPa West 8 km/h 22.5 km/h 88% 0 mm 0 W/m2
05:40 -0.7 °C -2.4 °C 1015.8 hPa WSW 9.7 km/h 12.9 km/h 88% 0 mm 0 W/m2
05:50 -0.8 °C -2.4 °C 1016.1 hPa WSW 4.8 km/h 12.9 km/h 89% 0 mm 0 W/m2
06:00 -0.9 °C -2.3 °C 1016.1 hPa WSW 11.3 km/h 25.7 km/h 90% 0 mm 0 W/m2
06:10 -0.8 °C -2.4 °C 1016.1 hPa WSW 11.3 km/h 24.1 km/h 89% 0 mm 0 W/m2
06:20 -0.7 °C -2.3 °C 1016.5 hPa WSW 11.3 km/h 25.7 km/h 89% 0 mm 0 W/m2
06:30 -0.7 °C -2.3 °C 1016.5 hPa WSW 8 km/h 22.5 km/h 89% 0 mm 0 W/m2
06:40 -0.7 °C -2.3 °C 1016.5 hPa WSW 8 km/h 14.5 km/h 89% 0 mm 0 W/m2
06:50 -0.8 °C -2.4 °C 1016.5 hPa WSW 4.8 km/h 12.9 km/h 89% 0 mm 0 W/m2
07:00 -0.9 °C -2.5 °C 1016.5 hPa WSW 8 km/h 16.1 km/h 89% 0 mm 0 W/m2
07:10 -1 °C -2.4 °C 1016.5 hPa WSW 8 km/h 16.1 km/h 90% 0 mm 7 W/m2
07:20 -1.1 °C -2.6 °C 1016.8 hPa WSW 4.8 km/h 14.5 km/h 90% 0 mm 11 W/m2
07:30 -1 °C -2.4 °C 1016.8 hPa WSW 9.7 km/h 14.5 km/h 90% 0 mm 18 W/m2
07:40 -0.8 °C -2.4 °C 1017.2 hPa WSW 12.9 km/h 19.3 km/h 89% 0 mm 28 W/m2
07:50 -0.8 °C -2.4 °C 1017.2 hPa WSW 8 km/h 17.7 km/h 89% 0 mm 47 W/m2
08:00 -0.7 °C -2.4 °C 1017.2 hPa WSW 8 km/h 16.1 km/h 88% 0 mm 62 W/m2
08:10 -0.8 °C -2.4 °C 1017.2 hPa SSW 3.2 km/h 11.3 km/h 89% 0 mm 62 W/m2
08:20 -0.8 °C -2.4 °C 1017.2 hPa South 3.2 km/h 6.4 km/h 89% 0 mm 97 W/m2
08:30 -0.7 °C -2.1 °C 1017.2 hPa SW 1.6 km/h 6.4 km/h 90% 0 mm 141 W/m2
08:40 -0.4 °C -2 °C 1017.2 hPa West 1.6 km/h 4.8 km/h 89% 0 mm 157 W/m2
08:50 -0.2 °C -1.9 °C 1017.2 hPa WSW 3.2 km/h 12.9 km/h 88% 0 mm 181 W/m2
09:00 0.1 °C -1.7 °C 1017.5 hPa WSW 3.2 km/h 12.9 km/h 88% 0 mm 200 W/m2
09:10 0.5 °C -1.7 °C 1017.5 hPa WSW 11.3 km/h 17.7 km/h 85% 0 mm 219 W/m2
09:20 0.7 °C -1.7 °C 1017.5 hPa WSW 14.5 km/h 24.1 km/h 84% 0 mm 236 W/m2
09:30 0.8 °C -1.6 °C 1017.5 hPa WSW 14.5 km/h 24.1 km/h 84% 0 mm 220 W/m2
09:40 0.6 °C -1.8 °C 1017.8 hPa West 9.7 km/h 22.5 km/h 84% 0 mm 159 W/m2
09:50 0.6 °C -1.7 °C 1017.8 hPa West 8 km/h 17.7 km/h 85% 0 mm 159 W/m2
10:00 0.6 °C -1.8 °C 1017.8 hPa WSW 12.9 km/h 22.5 km/h 84% 0 mm 142 W/m2
10:10 0.5 °C -1.9 °C 1017.8 hPa WSW 9.7 km/h 22.5 km/h 84% 0 mm 132 W/m2
10:20 0.5 °C -1.9 °C 1017.8 hPa WSW 8 km/h 17.7 km/h 84% 0 mm 129 W/m2
10:30 0.4 °C -2 °C 1017.8 hPa WSW 9.7 km/h 24.1 km/h 84% 0 mm 146 W/m2
10:40 0.4 °C -1.9 °C 1017.8 hPa WSW 8 km/h 24.1 km/h 84% 0 mm 147 W/m2
10:50 0.5 °C -1.9 °C 1017.5 hPa West 8 km/h 16.1 km/h 84% 0 mm 146 W/m2
11:00 0.6 °C -1.8 °C 1017.5 hPa West 9.7 km/h 16.1 km/h 84% 0 mm 164 W/m2
11:10 0.7 °C -1.7 °C 1017.5 hPa WNW 9.7 km/h 19.3 km/h 84% 0 mm 201 W/m2
11:30 1.1 °C -1.4 °C 1017.5 hPa West 9.7 km/h 22.5 km/h 83% 0 mm 205 W/m2
11:40 1.1 °C -1.4 °C 1017.2 hPa West 9.7 km/h 19.3 km/h 83% 0 mm 96 W/m2
11:50 0.7 °C -1.8 °C 1018.5 hPa West 4.8 km/h 19.3 km/h 83% 0 mm 81 W/m2
12:00 0.5 °C -2.1 °C 1018.5 hPa West 8 km/h 19.3 km/h 83% 0 mm 105 W/m2
12:10 0.4 °C -2 °C 1018.5 hPa West 8 km/h 16.1 km/h 84% 0 mm 148 W/m2
12:20 0.4 °C -2 °C 1018.5 hPa West 11.3 km/h 17.7 km/h 84% 0 mm 163 W/m2
12:30 0.4 °C -2 °C 1018.2 hPa West 9.7 km/h 14.5 km/h 84% 0 mm 139 W/m2
12:40 0.4 °C -2.2 °C 1018.2 hPa WSW 8 km/h 12.9 km/h 83% 0 mm 141 W/m2
12:50 0.5 °C -1.9 °C 1018.2 hPa WSW 9.7 km/h 14.5 km/h 84% 0 mm 143 W/m2
13:00 0.5 °C -1.9 °C 1018.2 hPa WSW 8 km/h 16.1 km/h 84% 0 mm 156 W/m2
13:10 0.6 °C -1.9 °C 1018.2 hPa WSW 8 km/h 12.9 km/h 83% 0 mm 168 W/m2
13:20 0.7 °C -2.2 °C 1017.8 hPa WSW 8 km/h 14.5 km/h 81% 0 mm 175 W/m2
13:30 1 °C -2.1 °C 1017.8 hPa WSW 8 km/h 16.1 km/h 80% 0 mm 276 W/m2
13:40 1.9 °C -1.2 °C 1017.8 hPa WSW 9.7 km/h 14.5 km/h 80% 0 mm 260 W/m2
13:50 2.3 °C -1.3 °C 1017.8 hPa WSW 11.3 km/h 19.3 km/h 77% 0 mm 244 W/m2
14:00 2 °C -1.9 °C 1017.8 hPa WSW 9.7 km/h 20.9 km/h 75% 0 mm 136 W/m2
14:10 1.6 °C -2.3 °C 1017.8 hPa WSW 11.3 km/h 20.9 km/h 75% 0 mm 124 W/m2
14:20 1.3 °C -2.7 °C 1017.8 hPa WSW 9.7 km/h 20.9 km/h 75% 0 mm 126 W/m2
14:30 1.2 °C -2.9 °C 1017.8 hPa West 11.3 km/h 20.9 km/h 74% 0 mm 87 W/m2
14:40 1.1 °C -2.8 °C 1017.8 hPa West 12.9 km/h 20.9 km/h 75% 0 mm 72 W/m2
14:50 0.9 °C -2.7 °C 1017.8 hPa WSW 11.3 km/h 19.3 km/h 77% 0 mm 66 W/m2
15:00 0.9 °C -2.5 °C 1018.2 hPa WSW 9.7 km/h 19.3 km/h 78% 0 mm 53 W/m2
15:10 0.8 °C -2.6 °C 1018.2 hPa WSW 4.8 km/h 12.9 km/h 78% 0 mm 38 W/m2
15:20 0.8 °C -2.4 °C 1018.2 hPa WSW 4.8 km/h 12.9 km/h 79% 0 mm 25 W/m2
15:30 0.7 °C -2.5 °C 1018.2 hPa WSW 3.2 km/h 8 km/h 79% 0 mm 23 W/m2
15:40 0.7 °C -2.3 °C 1018.2 hPa WSW 3.2 km/h 6.4 km/h 80% 0 mm 19 W/m2
15:50 0.7 °C -2.3 °C 1018.2 hPa WSW 1.6 km/h 4.8 km/h 80% 0 mm 13 W/m2
16:00 0.7 °C -2.2 °C 1018.2 hPa WSW 1.6 km/h 3.2 km/h 81% 0 mm 3 W/m2
16:10 0.6 °C -1.9 °C 1018.2 hPa WSW 1.6 km/h 3.2 km/h 83% 0 mm 4 W/m2
16:20 0.5 °C -1.9 °C 1018.2 hPa SW 1.6 km/h 4.8 km/h 84% 0 mm 2 W/m2
16:30 0.4 °C -1.9 °C 1018.2 hPa WSW 8 km/h 11.3 km/h 84% 0 mm 0 W/m2
16:40 0.3 °C -1.9 °C 1018.2 hPa WSW 8 km/h 12.9 km/h 85% 0 mm 0 W/m2
16:50 0.2 °C -1.9 °C 1018.2 hPa WSW 9.7 km/h 12.9 km/h 86% 0 mm 0 W/m2
17:00 0.1 °C -1.9 °C 1018.2 hPa WSW 4.8 km/h 12.9 km/h 86% 0 mm 0 W/m2
17:10 0 °C -2.1 °C 1018.2 hPa WSW 4.8 km/h 9.7 km/h 86% 0 mm 0 W/m2
17:20 0 °C -2.1 °C 1018.2 hPa SW 3.2 km/h 8 km/h 86% 0 mm 0 W/m2
17:30 -0.1 °C -1.8 °C 1018.2 hPa WSW 1.6 km/h 4.8 km/h 88% 0 mm 0 W/m2
17:40 -0.1 °C -1.8 °C 1018.2 hPa West 1.6 km/h 4.8 km/h 88% 0 mm 0 W/m2
17:50 -0.1 °C -1.8 °C 1018.2 hPa NW 1.6 km/h 3.2 km/h 88% 0 mm 0 W/m2
18:00 -0.2 °C -1.9 °C 1018.5 hPa Calm   4.8 km/h 88% 0 mm 0 W/m2
18:10 -0.3 °C -2.1 °C 1018.5 hPa West 3.2 km/h 4.8 km/h 88% 0 mm 0 W/m2
18:20 -0.3 °C -1.9 °C 1018.5 hPa SW 3.2 km/h 4.8 km/h 89% 0 mm 0 W/m2
18:30 -0.4 °C -2 °C 1018.5 hPa WSW 1.6 km/h 4.8 km/h 89% 0 mm 0 W/m2
18:40 -0.5 °C -2.1 °C 1018.5 hPa SW 1.6 km/h 3.2 km/h 89% 0 mm 0 W/m2
18:50 -0.5 °C -2.1 °C 1018.5 hPa WSW 1.6 km/h 3.2 km/h 89% 0 mm 0 W/m2
19:00 -0.6 °C -2.2 °C 1018.5 hPa West 3.2 km/h 6.4 km/h 89% 0 mm 0 W/m2
19:10 -0.6 °C -2.1 °C 1018.5 hPa West 1.6 km/h 4.8 km/h 90% 0 mm 0 W/m2
19:20 -0.7 °C -2.1 °C 1018.5 hPa WSW 1.6 km/h 4.8 km/h 90% 0 mm 0 W/m2
19:30 -0.8 °C -2.2 °C 1018.2 hPa SSW 8 km/h 12.9 km/h 90% 0 mm 0 W/m2
19:40 -0.8 °C -2.2 °C 1018.2 hPa SW 3.2 km/h 12.9 km/h 90% 0 mm 0 W/m2
19:50 -0.8 °C -2.2 °C 1018.2 hPa West 4.8 km/h 8 km/h 90% 0 mm 0 W/m2
20:00 -0.9 °C -2.3 °C 1018.2 hPa NNE 3.2 km/h 8 km/h 90% 0 mm 0 W/m2
20:10 -0.9 °C -2.2 °C 1018.5 hPa North 1.6 km/h 6.4 km/h 91% 0 mm 0 W/m2
20:20 -0.9 °C -2.3 °C 1018.2 hPa SSE 3.2 km/h 11.3 km/h 90% 0 mm 0 W/m2
20:30 -0.8 °C -2.2 °C 1018.2 hPa WSW 1.6 km/h 12.9 km/h 90% 0 mm 0 W/m2
20:40 -0.8 °C -2.2 °C 1018.2 hPa SW 3.2 km/h 6.4 km/h 90% 0 mm 0 W/m2
20:50 -0.8 °C -2.2 °C 1018.2 hPa SW 1.6 km/h 9.7 km/h 90% 0 mm 0 W/m2
21:00 -0.8 °C -2.2 °C 1018.2 hPa SSE 1.6 km/h 9.7 km/h 90% 0 mm 0 W/m2
21:10 -0.8 °C -2.2 °C 1018.2 hPa Calm   6.4 km/h 90% 0 mm 0 W/m2
21:20 -0.8 °C -2.2 °C 1018.2 hPa SW 1.6 km/h 6.4 km/h 90% 0 mm 0 W/m2
21:30 -0.8 °C -2.4 °C 1018.2 hPa WSW 3.2 km/h 9.7 km/h 89% 0 mm 0 W/m2
21:40 -0.8 °C -2.4 °C 1018.2 hPa WSW 1.6 km/h 8 km/h 89% 0 mm 0 W/m2
21:50 -0.8 °C -2.4 °C 1018.2 hPa Calm   6.4 km/h 89% 0 mm 0 W/m2
22:00 -0.8 °C -2.4 °C 1018.2 hPa Calm   3.2 km/h 89% 0 mm 0 W/m2
22:10 -0.8 °C -2.4 °C 1018.2 hPa Calm   3.2 km/h 89% 0 mm 0 W/m2
22:20 -0.8 °C -2.4 °C 1018.2 hPa Calm   4.8 km/h 89% 0 mm 0 W/m2
22:30 -0.9 °C -2.3 °C 1018.2 hPa WSW 1.6 km/h 3.2 km/h 90% 0 mm 0 W/m2
22:40 -0.9 °C -2.3 °C 1018.2 hPa West 1.6 km/h 6.4 km/h 90% 0 mm 0 W/m2
22:50 -1 °C -2.4 °C 1018.2 hPa NE 1.6 km/h 8 km/h 90% 0 mm 0 W/m2
23:00 -1 °C -2.4 °C 1018.2 hPa North 1.6 km/h 4.8 km/h 90% 0 mm 0 W/m2
23:10 -1 °C -2.4 °C 1018.2 hPa WNW 1.6 km/h 4.8 km/h 90% 0 mm 0 W/m2
23:20 -1 °C -2.6 °C 1018.2 hPa NNW 1.6 km/h 9.7 km/h 89% 0 mm 0 W/m2
23:30 -1 °C -2.6 °C 1018.2 hPa WNW 3.2 km/h 9.7 km/h 89% 0 mm 0 W/m2
23:40 -1 °C -2.6 °C 1018.2 hPa Calm   4.8 km/h 89% 0 mm 0 W/m2
23:50 -1 °C -2.6 °C 1018.2 hPa Calm   3.2 km/h 89% 0 mm 0 W/m2
Knjazevac, Serbia
Compliments of Weather Underground - 2 mb